Wind_Speed
22 23 24 24 25 25 26 26 25 25 25 24 23 22 22 22 23 22 21 20 20 19 18 18 17 16 16 15 15 15 16 16 16 15 14 14 14 15 15 15 15 15 16
23 23 24 25 26 26 26 27 26 27 27 26 26 25 24 23 23 23 23 21 20 20 19 19 18 18 17 17 17 17 17 17 17 16 16 15 16 16 16 17 17 17 17
23 23 24 25 25 26 26 27 27 27 28 27 27 26 26 25 24 24 24 23 22 21 21 20 20 19 19 19 18 18 18 18 18 17 17 17 17 18 18 18 18 19 19
24 25 25 25 26 26 26 27 27 26 27 27 27 26 26 27 26 25 25 25 23 22 22 22 21 21 20 20 20 20 19 19 19 18 18 18 18 18 19 19 20 20 20
26 26 26 26 26 26 26 26 26 26 27 28 27 27 26 26 26 25 26 26 24 24 24 23 22 21 21 21 21 20 21 20 20 20 19 19 19 19 19 20 21 22 22
25 25 25 25 26 25 25 25 25 26 27 27 26 26 26 26 26 26 26 26 26 25 25 24 23 23 22 22 22 21 20 21 21 21 22 21 21 21 21 21 22 23 22
25 26 25 25 25 25 26 26 26 26 26 26 26 26 26 26 26 26 26 26 25 25 25 25 24 24 23 23 22 21 21 21 21 22 23 22 22 22 22 23 23 23 24
25 25 25 25 25 25 25 24 25 25 26 25 26 26 26 27 27 26 26 25 26 26 26 25 25 24 24 23 23 22 22 22 22 22 22 23 23 23 23 24 24 24 25
25 25 25 25 25 24 24 25 25 25 25 26 26 26 27 28 28 27 26 26 26 26 26 25 24 24 24 24 24 23 23 23 23 23 23 23 24 24 24 25 25 25 25
26 25 24 24 24 25 25 26 25 26 26 26 26 27 27 27 27 26 26 26 25 25 25 24 24 24 24 24 24 24 24 25 24 25 25 25 25 26 26 26 26 27 27
27 26 25 25 25 25 25 26 26 27 27 27 27 27 27 28 28 27 26 26 26 26 25 24 24 24 25 25 26 26 26 26 26 26 26 26 26 27 28 28 28 28 28
27 27 26 26 26 26 25 25 25 26 27 27 27 27 27 27 27 27 26 27 27 26 26 26 25 25 26 26 26 27 27 27 27 27 27 28 28 28 29 29 28 29 29
26 26 26 26 26 26 27 26 25 26 26 26 26 26 26 26 27 27 28 28 28 28 28 27 27 27 27 27 27 27 27 27 27 28 28 28 29 29 29 29 29 30 30
26 26 25 26 26 27 28 28 27 27 26 25 25 26 27 28 28 29 29 30 30 29 28 28 28 28 28 28 28 28 28 29 29 29 29 28 29 29 29 29 30 30 30
26 26 26 26 27 27 27 27 28 28 27 27 27 27 28 28 29 29 30 30 29 29 29 29 29 29 30 29 29 30 30 30 30 29 29 29 29 30 30 29 30 30 30
27 27 26 27 27 27 27 28 28 28 28 28 28 29 29 29 29 29 29 29 30 30 30 30 30 30 31 31 31 31 31 31 31 30 30 30 29 29 29 29 29 30 30
27 27 27 27 27 27 27 28 28 28 29 29 30 30 30 30 30 31 31 31 31 31 30 30 31 31 31 31 31 31 31 30 30 30 30 30 29 29 29 29 29 29 28
28 27 26 26 26 26 26 27 28 29 30 30 30 31 31 31 31 31 31 31 31 31 31 31 31 31 31 31 31 30 30 31 30 30 29 29 28 28 27 28 28 27 26
28 28 27 26 26 26 26 27 27 28 29 30 30 31 31 32 32 32 31 32 32 32 31 31 31 31 31 31 31 31 30 30 30 29 28 28 27 27 26 26 26 25 24
27 27 27 27 26 26 27 27 28 28 29 30 30 31 31 31 32 33 33 33 32 32 32 31 30 30 30 30 30 30 30 30 28 27 26 25 25 24 24 24 24 23 24
25 25 25 25 26 26 26 27 28 28 28 29 29 30 29 30 31 32 32 32 32 32 31 31 30 30 30 30 29 28 28 28 27 26 25 24 24 24 24 23 23 23 23
23 23 23 24 25 25 26 26 27 27 27 27 27 28 29 29 29 29 30 31 31 31 31 31 30 30 29 29 27 27 26 26 26 25 24 24 23 23 23 23 23 23 22
22 23 23 23 24 24 25 25 25 25 25 25 26 26 27 27 27 28 28 29 29 29 30 29 29 29 28 27 26 25 25 24 24 23 23 22 22 22 22 21 21 21 21
21 21 21 21 22 22 22 23 23 23 23 24 24 25 26 26 26 27 26 27 27 27 27 27 27 27 27 26 25 24 23 23 23 22 22 21 21 20 20 19 19 19 20
19 19 19 19 20 20 20 21 21 21 21 22 23 23 24 24 24 24 25 25 25 25 25 25 25 25 25 24 23 23 22 21 20 20 20 19 19 18 18 18 18 18 18
17 17 17 18 18 18 19 18 18 18 19 19 20 20 20 21 21 21 21 22 22 22 23 23 22 22 22 21 21 20 20 19 18 18 18 18 18 17 16 17 17 17 16
Wind_Direction
277 278 278 276 273 272 272 270 269 269 269 269 268 269 269 265 263 263 265 267 267 266 264 264 267 264 263 265 265 265 265 266 266 266 265 264 264 264 264 265 264 262 261
280 279 278 278 276 274 274 270 268 268 268 267 267 267 268 263 262 262 263 265 265 264 264 265 264 265 264 264 264 265 266 266 265 265 265 265 264 264 265 265 265 264 263
280 280 279 279 278 275 272 271 268 266 266 267 265 264 264 262 259 260 260 260 261 260 261 262 262 265 263 262 263 263 265 265 264 264 263 263 264 265 265 265 265 265 263
279 281 280 278 277 275 273 269 267 266 265 265 264 264 264 262 260 258 258 258 258 259 258 260 261 264 265 262 262 262 263 264 264 263 263 262 263 265 266 267 266 266 266
281 280 279 278 276 275 273 269 265 264 264 263 262 262 261 261 259 257 256 256 256 256 257 259 260 263 264 261 261 261 261 263 264 263 263 263 263 265 266 268 268 268 268
281 280 278 278 275 272 272 269 268 265 263 260 258 258 258 259 258 258 257 256 254 254 255 256 258 261 262 261 260 261 261 262 263 264 265 264 265 267 266 267 267 268 268
281 278 277 275 274 271 270 267 265 265 261 258 256 256 257 257 257 257 255 255 254 252 253 256 257 259 259 258 259 261 262 263 264 266 265 266 266 267 268 268 269 270 269
283 281 276 274 273 270 268 265 263 263 260 257 255 256 257 256 256 256 256 255 254 254 255 257 256 258 258 258 259 261 263 265 265 265 266 266 266 267 267 267 270 271 271
283 280 277 273 270 269 267 264 263 262 260 258 255 255 254 255 255 256 254 254 254 255 254 255 256 255 256 257 258 260 262 264 266 266 266 266 266 267 269 268 270 271 271
283 280 275 274 273 270 268 265 263 262 260 258 255 254 254 253 254 256 253 252 252 253 253 255 255 254 255 256 258 259 260 262 265 266 266 266 267 267 268 270 270 271 272
280 279 276 274 271 270 268 265 262 260 260 258 256 255 255 253 254 254 253 251 251 253 253 254 255 255 255 256 257 258 259 261 264 265 265 265 266 267 268 270 271 271 271
278 277 276 275 273 271 270 267 263 261 259 258 256 255 254 253 252 252 252 252 253 253 253 254 255 256 257 257 257 260 261 262 263 265 266 265 267 267 267 269 270 271 271
279 277 275 272 272 270 268 265 264 262 260 257 257 256 254 253 251 252 252 253 254 255 256 255 255 256 258 257 259 260 261 263 264 265 265 267 268 268 268 268 270 271 272
278 277 274 272 271 269 266 264 263 262 261 259 257 255 254 253 253 253 253 253 253 254 256 256 256 256 257 258 259 260 261 262 264 265 266 268 269 268 269 269 271 272 274
276 276 275 273 273 271 267 264 263 262 261 259 257 256 255 254 254 254 255 254 254 254 255 257 257 258 259 260 261 261 262 263 265 267 267 269 269 270 270 270 271 272 273
276 275 274 273 271 270 265 263 263 263 262 261 260 259 257 256 255 255 255 255 254 255 255 257 259 260 261 260 261 262 262 263 264 266 268 269 270 270 270 270 271 272 273
276 274 274 272 270 269 265 265 265 265 263 261 259 259 258 257 257 256 256 256 255 254 255 257 259 261 262 262 261 262 263 263 264 266 268 269 270 269 270 270 272 273 274
275 274 274 273 271 271 268 265 264 264 263 261 260 259 259 258 256 256 256 256 256 256 255 255 257 259 261 262 262 262 263 264 265 267 268 270 270 269 271 271 273 276 277
274 274 274 273 272 271 270 268 266 265 263 262 260 260 260 258 257 257 256 256 256 256 256 256 258 259 260 261 262 263 264 265 265 266 267 268 269 270 270 271 274 277 278
276 274 274 274 273 273 272 271 269 267 265 264 263 263 262 259 258 257 257 257 257 257 256 257 258 259 259 260 261 262 262 262 264 264 264 266 267 269 269 272 274 276 277
277 276 274 274 273 272 272 271 271 270 268 266 265 264 263 261 261 260 259 258 257 257 257 257 257 257 259 261 261 261 261 260 261 262 263 266 267 266 266 269 273 273 275
280 280 278 276 276 275 274 274 273 270 269 268 267 267 265 263 262 261 260 259 258 258 258 258 257 258 258 258 259 259 261 261 259 259 261 262 263 264 266 267 270 271 274
280 281 280 278 278 277 277 275 273 271 271 270 269 268 268 266 265 264 262 259 259 259 258 258 257 256 255 256 257 257 257 257 255 256 258 260 261 264 266 267 269 271 274
281 280 281 281 280 280 278 276 275 274 274 272 271 269 268 267 266 264 262 259 258 257 256 255 255 254 252 253 254 254 254 253 254 255 256 259 260 262 265 267 269 272 274
285 283 281 282 282 281 280 278 277 277 276 275 273 272 269 267 266 262 260 258 256 254 253 253 253 252 250 250 250 251 251 251 251 253 255 257 259 261 263 266 270 273 275
290 289 287 285 284 282 281 279 279 280 280 277 275 273 270 267 264 261 259 256 254 254 252 251 251 250 248 246 246 247 248 247 250 253 256 257 260 262 265 267 272 274 276
Height
5866 5865 5865 5865 5865 5865 5865 5866 5866 5866 5867 5867 5868 5868 5869 5869 5870 5871 5871 5872 5872 5872 5872 5873 5873 5874 5874 5875 5875 5875 5876 5876 5876 5877 5877 5877 5878 5878 5879 5879 5879 5880 5880
5861 5860 5860 5860 5860 5860 5860 5860 5860 5861 5861 5861 5862 5863 5863 5864 5864 5865 5867 5867 5868 5868 5868 5869 5869 5870 5870 5871 5871 5871 5872 5872 5872 5873 5873 5873 5874 5874 5875 5875 5876 5876 5876
5856 5855 5855 5854 5854 5854 5854 5854 5854 5854 5855 5855 5856 5856 5857 5858 5859 5860 5861 5862 5863 5864 5864 5864 5865 5866 5866 5866 5867 5867 5867 5868 5868 5868 5869 5869 5870 5870 5870 5871 5871 5872 5872
5850 5849 5849 5849 5848 5848 5847 5848 5848 5848 5849 5849 5850 5851 5852 5853 5853 5854 5855 5857 5857 5858 5859 5860 5860 5861 5861 5862 5862 5862 5863 5863 5864 5864 5864 5865 5865 5866 5866 5866 5867 5867 5867
5845 5844 5843 5842 5842 5842 5842 5842 5842 5842 5843 5843 5844 5845 5846 5847 5848 5849 5850 5851 5852 5853 5854 5854 5855 5856 5856 5857 5857 5857 5858 5858 5859 5859 5860 5860 5860 5861 5861 5861 5862 5862 5862
5839 5838 5837 5836 5835 5835 5835 5835 5835 5836 5837 5837 5838 5839 5840 5841 5842 5843 5844 5845 5846 5847 5848 5849 5850 5851 5851 5852 5852 5852 5852 5853 5853 5854 5855 5855 5855 5856 5856 5856 5856 5856 5857
5832 5831 5831 5830 5829 5829 5829 5829 5829 5829 5830 5831 5832 5833 5834 5834 5836 5837 5838 5839 5840 5841 5842 5843 5844 5845 5845 5846 5847 5847 5848 5848 5848 5849 5849 5849 5850 5850 5850 5851 5851 5851 5851
5826 5825 5824 5823 5823 5822 5822 5822 5822 5823 5823 5824 5825 5826 5827 5829 5830 5831 5832 5833 5834 5835 5836 5837 5838 5839 5840 5840 5841 5842 5843 5843 5843 5843 5844 5844 5844 5844 5845 5845 5845 5845 5845
5819 5818 5817 5816 5816 5816 5816 5816 5816 5816 5816 5817 5818 5820 5821 5823 5824 5825 5826 5827 5828 5829 5831 5831 5832 5833 5834 5835 5835 5836 5837 5837 5838 5838 5838 5838 5839 5839 5839 5839 5839 5839 5839
5812 5811 5810 5810 5809 5809 5809 5809 5809 5809 5810 5810 5811 5813 5814 5816 5817 5819 5820 5821 5822 5823 5824 5825 5826 5827 5828 5829 5829 5830 5831 5832 5832 5832 5832 5832 5833 5833 5833 5833 5833 5833 5833
5806 5805 5804 5803 5803 5803 5802 5802 5803 5803 5803 5804 5805 5806 5807 5809 5810 5812 5813 5815 5816 5817 5818 5819 5820 5820 5821 5822 5823 5824 5825 5826 5826 5826 5826 5826 5826 5826 5826 5826 5826 5826 5826
5800 5798 5797 5797 5796 5796 5796 5796 5796 5796 5797 5798 5798 5800 5801 5802 5804 5805 5807 5808 5809 5810 5811 5813 5813 5814 5815 5816 5817 5818 5818 5819 5820 5820 5820 5820 5820 5820 5820 5820 5819 5820 5819
5793 5792 5791 5790 5790 5789 5789 5789 5789 5789 5790 5791 5791 5792 5794 5796 5797 5798 5800 5801 5802 5803 5804 5806 5807 5808 5809 5809 5810 5811 5812 5812 5813 5813 5813 5813 5813 5813 5813 5813 5813 5813 5812
5786 5785 5784 5783 5783 5782 5782 5782 5782 5783 5783 5784 5785 5786 5787 5789 5790 5791 5793 5794 5795 5797 5798 5799 5800 5801 5802 5802 5803 5804 5805 5805 5806 5806 5806 5806 5806 5806 5806 5806 5806 5806 5805
5779 5778 5777 5776 5776 5775 5775 5775 5775 5775 5776 5777 5777 5779 5780 5781 5782 5784 5785 5786 5788 5789 5791 5791 5792 5793 5794 5795 5796 5797 5797 5798 5798 5799 5799 5799 5799 5799 5799 5799 5799 5799 5798
5772 5771 5770 5769 5768 5768 5768 5768 5768 5768 5769 5769 5770 5771 5772 5773 5774 5776 5777 5778 5780 5782 5783 5784 5785 5786 5787 5787 5788 5789 5790 5790 5791 5792 5792 5792 5792 5792 5792 5792 5792 5792 5791
5764 5763 5762 5761 5761 5760 5760 5760 5760 5760 5761 5762 5762 5763 5764 5765 5766 5768 5769 5771 5772 5774 5775 5776 5777 5778 5779 5779 5780 5781 5782 5783 5783 5784 5784 5784 5784 5785 5785 5784 5784 5784 5784
5756 5755 5755 5754 5753 5753 5753 5753 5753 5753 5753 5754 5754 5755 5756 5757 5758 5759 5761 5762 5764 5765 5767 5768 5769 5770 5771 5771 5772 5773 5774 5774 5775 5776 5777 5777 5777 5777 5777 5778 5777 5777 5777
5749 5748 5747 5746 5746 5745 5745 5745 5745 5745 5745 5746 5746 5746 5747 5748 5749 5751 5752 5753 5755 5757 5758 5760 5761 5762 5763 5764 5764 5765 5766 5767 5768 5768 5769 5769 5770 5770 5770 5771 5771 5771 5771
5741 5740 5739 5739 5738 5738 5738 5737 5737 5737 5737 5737 5738 5738 5738 5739 5740 5741 5743 5744 5746 5748 5750 5751 5753 5754 5755 5756 5757 5758 5758 5759 5760 5761 5762 5762 5763 5764 5764 5764 5764 5764 5765
5734 5733 5732 5731 5731 5731 5730 5730 5729 5729 5729 5729 5729 5730 5730 5730 5731 5732 5734 5736 5737 5739 5741 5743 5745 5746 5747 5748 5749 5750 5751 5752 5753 5754 5755 5756 5757 5758 5758 5758 5758 5758 5759
5727 5726 5725 5725 5724 5723 5723 5722 5722 5722 5721 5721 5721 5721 5722 5722 5723 5724 5725 5727 5729 5731 5732 5734 5736 5738 5739 5741 5742 5743 5744 5745 5747 5748 5749 5750 5751 5751 5752 5752 5753 5753 5753
5721 5720 5719 5718 5717 5717 5716 5715 5715 5714 5714 5714 5713 5714 5714 5714 5715 5716 5717 5718 5720 5722 5724 5726 5728 5730 5732 5733 5735 5736 5738 5739 5740 5741 5742 5743 5745 5745 5746 5746 5747 5747 5747
5715 5714 5713 5712 5711 5710 5709 5709 5708 5708 5707 5706 5706 5706 5706 5707 5707 5708 5709 5711 5712 5714 5716 5718 5720 5722 5724 5726 5728 5730 5731 5732 5734 5735 5737 5738 5739 5740 5741 5741 5741 5741 5741
5710 5708 5707 5706 5705 5704 5704 5703 5702 5701 5701 5700 5699 5699 5699 5700 5700 5701 5702 5703 5705 5706 5708 5710 5713 5715 5717 5719 5721 5723 5725 5727 5729 5730 5731 5733 5734 5735 5736 5736 5736 5736 5736
5705 5704 5702 5701 5700 5699 5698 5697 5697 5696 5695 5694 5693 5693 5693 5693 5693 5694 5695 5696 5698 5700 5702 5704 5706 5709 5711 5714 5716 5718 5720 5722 5724 5726 5727 5728 5729 5730 5731 5731 5731 5731 5732